Showing default

QIANFAN-152, 69111

Orbit data source: Space-Track

QIANFAN-152, 69111 is a Chinese payload satellite in LEO that was launched on Sun, 17 May 2026 UTC via a CHANG ZHENG 8 launch vehicle from the Wenchang Satellite Launch Center (WSC). Payload-class satellites include a variety of spacecraft equipped with specific instruments for various scientific and technological missions. These include communications satellites like Starlink; space stations such as the ISS; scientific satellites like the Hubble; Earth observation satellites from companies like Planet Labs, Umbra, and HawkEye 360; GPS; miniature CubeSats for education and research; and military/defense satellites.

Loading next visibility...
Identifier
69111, 2026-108H
Orbit
LEO
Country
Flag of CNCN / PRC
Related business
Manufacturer
SECM
Mission
Operational spacecraft
Bus & Motor
QIANFAN, Unknown motor
Mass
267 kg wet, ~267 kg dry
Launch date (UTC)
2026-05-17 (1 month ago)
Launch vehicle
CHANG ZHENG 8
Launch site
Wenchang Satellite Launch Center (WSC)
Object type
Payload
Rocket body
Debris
Shape & HBR
Unknown shape, 14.5 m
Radar Cross Section
Large (>1 m²)

Expand to show TLE details & history
Last TLE update: 1 day ago

TLE from 1 day ago
0 QIANFAN-152
1 69111U 26108H   26170.52785216 -.02108915  00000-0 -15470+1 0  9992
2 69111  89.0101  21.9564 0015585 111.7124 248.5716 14.00002639  4672
Epoch: 2026-06-19T12:40Z
TLE epoch observation values (Epoch: 2026-06-19T12:40:06.426Z)
Latitude
-0.00001°
Longitude
-75.82592°
Altitude
900.967 km
Speed
7.399 km/s
True Right ascension
01h 27m 49s
True Declination
0° 00' 00"
Sunlit
Object was in daylight at epoch
Visualization orbit readout
Latitude
Unknown
Longitude
Unknown
Altitude
Unknown
Speed
Unknown
Apparent Right ascension
Unknown
Apparent Declination
Unknown
Sunlit
N/A
Visualization observer readout
Local Sidereal Time
08:32:18
Azimuth
Unknown
Elevation
Unknown
Doppler factor
Unknown
Orbital elements
Apogee altitude
902.095 km
Perigee altitude
879.437 km
Semi-major axis
7,268.903 km
Eccentricity
0.00156
Inclination
89.0101°
RAAN
21.9564°
Arg. of periapsis
111.7124°
True anomaly
248.40547°
Mean anomaly
248.5716°
Eccentric anomaly
248.48852°
Mean motion
3.50219 °/min
Orbital period
102.79 mins
BSTAR
-1.547
Loading maneuver chart data...
Computing Atmospheric mass density...
Loading historical data...
Loading historical data...
Loading historical data...
Loading historical data...
Loading historical data...
Loading historical data...
Loading historical data...

Documentation

Showing up to 5 results
|